Photometre #77[Polarized_P] Kyiv AOT

File : 20190925_77.hum

25/09/2019,04:44:39,TEMP=5.0,BA=5.60,STAT.A=9.5,ExtBa=12.66
25/09/2019,04:48:43,TEMP=5.2,BA=5.60,STAT.A=9.5,ExtBa=12.57
25/09/2019,04:53:29,TEMP=5.2,BA=5.32,STAT.A=9.5,ExtBa=12.52
25/09/2019,04:59:10,TEMP=5.2,BA=5.32,STAT.A=9.5,ExtBa=12.49
25/09/2019,05:06:02,TEMP=5.4,BA=5.36,STAT.A=9.5,ExtBa=12.49
25/09/2019,05:14:32,TEMP=5.8,BA=5.60,STAT.A=9.5,ExtBa=12.53
25/09/2019,05:25:20,TEMP=6.3,BA=5.64,STAT.B=9.5,ExtBa=12.54
25/09/2019,05:30:31,TEMP=6.6,BA=5.64,STAT.A=9.5,ExtBa=12.51
25/09/2019,05:36:20,TEMP=6.9,BA=5.64,STAT.A=9.5,ExtBa=12.54
25/09/2019,05:42:57,TEMP=7.5,BA=5.64,STAT.A=9.5,ExtBa=12.98
25/09/2019,05:50:31,TEMP=8.5,BA=5.64,STAT.A=9.5,ExtBa=13.36
25/09/2019,05:59:16,TEMP=9.4,BA=5.64,STAT.C=9.5,ExtBa=13.53
25/09/2019,06:12:28,TEMP=10.8,BA=5.60,STAT.A=9.0,ExtBa=13.02
25/09/2019,06:21:46,TEMP=10.1,BA=5.64,STAT.A=9.5,ExtBa=13.72
25/09/2019,06:36:45,TEMP=10.7,BA=5.64,STAT.A=9.5,ExtBa=13.47
25/09/2019,06:50:25,TEMP=11.0,BA=5.64,STAT.F
25/09/2019,07:05:23,TEMP=11.1,BA=5.64,STAT.D=9.5,ExtBa=13.12
25/09/2019,07:20:23,TEMP=11.1,BA=5.64,STAT.D=9.5,ExtBa=13.03
25/09/2019,07:35:23,TEMP=11.3,BA=5.64,STAT.D=9.5,ExtBa=13.07
25/09/2019,07:50:25,TEMP=11.5,BA=5.64,STAT.F
25/09/2019,08:05:23,TEMP=12.0,BA=5.64,STAT.D=9.5,ExtBa=13.00
25/09/2019,08:20:23,TEMP=12.3,BA=5.64,STAT.D=9.5,ExtBa=13.08
25/09/2019,08:35:23,TEMP=13.3,BA=5.64,STAT.D=9.5,ExtBa=13.66
25/09/2019,08:50:24,TEMP=14.6,BA=5.64,STAT.F
25/09/2019,09:05:23,TEMP=16.3,BA=5.60,STAT.D=9.5,ExtBa=14.61
25/09/2019,09:20:23,TEMP=17.2,BA=5.68,STAT.D=9.5,ExtBa=14.89
25/09/2019,09:35:23,TEMP=17.3,BA=5.64,STAT.D=10.0,ExtBa=15.29
25/09/2019,09:50:25,TEMP=17.6,BA=5.68,STAT.F
25/09/2019,10:05:24,TEMP=16.9,BA=5.64,STAT.D=10.0,ExtBa=13.57
25/09/2019,10:20:24,TEMP=16.5,BA=5.64,STAT.D=10.0,ExtBa=13.09
25/09/2019,10:35:23,TEMP=16.2,BA=5.64,STAT.D=10.0,ExtBa=12.98
25/09/2019,10:50:25,TEMP=15.8,BA=5.64,STAT.F
25/09/2019,11:05:23,TEMP=16.5,BA=5.64,STAT.D=9.5,ExtBa=13.28
25/09/2019,11:20:23,TEMP=16.2,BA=5.64,STAT.D=10.0,ExtBa=13.92
25/09/2019,11:35:23,TEMP=17.2,BA=5.68,STAT.D=9.5,ExtBa=14.42
25/09/2019,11:50:25,TEMP=16.9,BA=5.64,STAT.F
25/09/2019,12:05:23,TEMP=17.0,BA=5.64,STAT.D=10.0,ExtBa=13.57
25/09/2019,12:20:23,TEMP=16.7,BA=5.64,STAT.D=10.0,ExtBa=13.64
25/09/2019,12:35:23,TEMP=16.9,BA=5.64,STAT.D=10.0,ExtBa=13.58
25/09/2019,12:50:24,TEMP=17.6,BA=5.64,STAT.F
25/09/2019,13:04:04,TEMP=18.7,BA=5.60,STAT.A=9.5,ExtBa=12.68
25/09/2019,13:19:01,TEMP=17.4,BA=5.60,STAT.A=10.0,ExtBa=13.01
25/09/2019,13:34:10,TEMP=17.3,BA=5.60,STAT.A=10.0,ExtBa=13.10
25/09/2019,13:41:32,TEMP=16.9,BA=5.64,STAT.C=10.0,ExtBa=13.00
25/09/2019,13:50:17,TEMP=16.9,BA=5.56,STAT.A=9.5,ExtBa=12.69
25/09/2019,13:57:50,TEMP=16.6,BA=5.56,STAT.A=10.0,ExtBa=12.74
25/09/2019,14:04:27,TEMP=16.7,BA=5.60,STAT.A=10.0,ExtBa=12.73
25/09/2019,14:10:17,TEMP=16.7,BA=5.56,STAT.A=10.0,ExtBa=12.72
25/09/2019,14:15:28,TEMP=16.7,BA=5.56,STAT.B=10.0,ExtBa=12.70
25/09/2019,14:26:16,TEMP=16.6,BA=5.44,STAT.A=10.0,ExtBa=12.65
25/09/2019,14:34:46,TEMP=16.4,BA=5.60,STAT.A=10.0,ExtBa=12.67
25/09/2019,14:41:38,TEMP=16.2,BA=5.56,STAT.A=10.0,ExtBa=12.66
25/09/2019,14:47:19,TEMP=16.0,BA=5.56,STAT.A=10.0,ExtBa=12.64
25/09/2019,14:52:05,TEMP=15.9,BA=5.52,STAT.A=10.0,ExtBa=12.63
25/09/2019,14:56:09,TEMP=15.9,BA=5.52,STAT.A=9.5,ExtBa=12.62